Regional Weather Roundup
Issued by NWS

Home | Current Version | Previous Version | Text Only | Print | Product List | Glossary On
Versions: 1 2 3 4 5 6 7 8 9 10 11 12 13 14 15 16 17 18 19 20 21 22 23 24 25 26 27
000
ASUS46 KSEW 242310
RWRWA

WASHINGTON REGIONAL WEATHER ROUNDUP
NATIONAL WEATHER SERVICE SEATTLE WA
400 PM PDT FRI OCT 24 2014

NOTE:"FAIR" INDICATES FEW OR NO CLOUDS BELOW 12,000 FEET WITH NO
SIGNIFICANT WEATHER AND/OR OBSTRUCTIONS TO VISIBILITY.

WAZ505-507>509-250000-
SEATTLE, TACOMA, EVERETT, AND VICINITY

CITY           SKY/WX    TMP DP  RH WIND       PRES   REMARKS
EVERETT        CLOUDY    54  45  71 N5        29.95F
BOEING FIELD   CLOUDY    58  48  69 NW6       29.93F
RENTON         CLOUDY    58  50  75 NW7       29.92F
SEATAC AIRPORT CLOUDY    57  47  69 N12       29.94F
JBLM-MCCHORD   CLOUDY    55  49  80 NE3       29.91F
PUYALLUP       NOT AVBL
JBLM-FT LEWIS  CLOUDY    55  49  81 NW5       29.91F
TACOMA NARROWS CLOUDY    54  47  77 N10       29.92F
$$

WAZ001-503-506-510-514-515-250000-
NORTH INTERIOR

CITY           SKY/WX    TMP DP  RH WIND       PRES   REMARKS
BELLINGHAM     CLOUDY    55  44  66 N12       29.96F
FRIDAY HARBOR  CLOUDY    55  45  68 N7        29.96F
EASTSOUND      CLOUDY    55  45  67 CALM      29.96F
PORT ANGELES   CLOUDY    52  46  80 E5        29.96F
NAS WHIDBEY    CLOUDY    56  47  71 N7        29.96F
BURLINGTON     SUNNY    N/A N/A N/A NW7       29.96F
$$

WAZ020-022-039-040-504-511-512-250000-
SOUTHWEST INTERIOR

CITY           SKY/WX    TMP DP  RH WIND       PRES   REMARKS
SHELTON        CLOUDY    53  49  86 N6        29.89F
OLYMPIA        CLOUDY    53  49  86 N6        29.91F
CHEHALIS       FAIR      55  52  88 CALM      29.89F
KELSO          CLOUDY    54  48  82 CALM      29.91F
VANCOUVER      LGT RAIN  55  52  89 N3        29.86F
SCAPPOOSE, OR  LGT RAIN  55  52  89 CALM      29.87F
PORTLAND, OR   LGT RAIN  55  52  89 E5        29.87F
$$

WAZ021-516-517-250000-
WASHINGTON COAST

CITY           SKY/WX    TMP DP  RH WIND       PRES   REMARKS
FORKS          CLOUDY    54  47  77 NE9       29.90F HAZE
HOQUIAM        CLOUDY    54  48  80 NE16      29.87F
ASTORIA, OR    LGT RAIN  55  50  83 E5        29.83F
$$

WAZ019-023-024-040-518-519-250000-
CASCADE MOUNTAINS AND COLUMBIA GORGE

CITY           SKY/WX    TMP DP  RH WIND       PRES   REMARKS
STAMPEDE PASS  NOT AVBL
TROUTDALE, OR  LGT RAIN  55  49  80 E13       29.86F
THE DALLES, OR LGT RAIN  52  49  89 CALM      29.98S FOG
$$

WAZ026-027-041>044-520-521-250000-
EAST SLOPES

CITY           SKY/WX    TMP DP  RH WIND       PRES   REMARKS
OMAK           CLOUDY    53  37  54 CALM      30.05F
WENATCHEE      CLOUDY    53  38  56 CALM      30.03F
ELLENSBURG     CLOUDY    52  41  66 S3        30.01F
YAKIMA         LGT RAIN  53  44  71 SW3       30.01F
$$

WAZ028-034-035-250000-
COLUMBIA BASIN

CITY           SKY/WX    TMP DP  RH WIND       PRES   REMARKS
EPHRATA        CLOUDY    55  42  61 NE7       30.02F
MOSES LAKE     CLOUDY    56  44  64 N7        30.03F
PASCO          LGT RAIN  56  51  84 N8        30.01S
HERMISTON, OR  LGT RAIN  56  48  74 N10       29.98S
$$

WAZ036>038-250000-
NORTHEAST WASHINGTON

CITY           SKY/WX    TMP DP  RH WIND       PRES   REMARKS
SPOKANE GEIGER CLOUDY    53  44  71 NE9       30.05S
SPOKANE FELTS  CLOUDY    56  44  64 N6        30.06S
FAIRCHILD AFB  CLOUDY    52  43  71 N10       30.05S
COEURDALENE,ID CLOUDY    55  39  54 CALM      30.05S
DEER PARK      CLOUDY    53  41  63 N5        30.07S
$$

WAZ029>033-250000-
SOUTHEAST WASHINGTON

CITY           SKY/WX    TMP DP  RH WIND       PRES   REMARKS
PULLMAN        CLOUDY    53  44  71 E14       30.05F
LEWISTON, ID   LGT RAIN  57  50  77 E5        30.03S
WALLA WALLA    LGT RAIN  58  51  78 VRB3      29.99F
PENDLETON, OR  LGT RAIN  53  48  83 NE17      29.96F
$$



USA.gov is the U.S. government's official web portal to all federal, state and local government web resources and services.